Weather History for Biloxi, MS

Change the Weather History Date:

Sunday, April 1, 2012

  Actual Average Record
Temperature  
Mean Temperature 74 °F -  
Max Temperature 81 °F 73 °F 81 °F (2012)
Min Temperature 69 °F 56 °F 36 °F (1987)
Cooling Degree Days 10    
Growing Degree Days 24 (Base 50)    
Moisture  
Dew Point 70 °F    
Average Humidity 92    
Maximum Humidity 100    
Minimum Humidity 72    
Precipitation  
Precipitation 0.00 in - - ()
Sea Level Pressure  
Sea Level Pressure 29.93 in    
Wind  
Wind Speed 3 mph (SSW)    
Max Wind Speed 14 mph    
Max Gust Speed 17 mph    
Visibility 6 miles    
Events Fog    
Averages and records for this station are not official NWS values.
T = Trace of Precipitation, MM = Missing Value Source: NWS Daily Summary

Daily Weather History Graph

Daily Weather History Graph

Search for Another Location

Airport:

Trip Planner

Search our weather history database for the weather conditions in past years. The results will help you decide how hot, cold, wet, or windy it might be!

Date:

Astronomy

Apr. 01, 2012 Rise Set
Actual Time 6:44 AM CDT 7:14 PM CDT
Civil Twilight 6:20 AM CDT 7:39 PM CDT
Nautical Twilight 5:51 AM CDT 8:07 PM CDT
Astronomical Twilight 5:22 AM CDT 8:36 PM CDT
Moon 2:06 PM CDT (4/1) 2:57 AM CDT (4/1)
Length of Visible Light 13h 19m
Length of Day
12h 30m
Waxing Gibbous, 69% of the Moon is Illuminated
Apr 1
Waxing Gibbous
Apr 6
Full
Apr 13
Last Quarter
Apr 21
New
Apr 29
First Quarter

Hourly Weather History & Observations

Time (CDT) Temp. Heat Index Dew Point Humidity Pressure Visibility Wind Dir Wind Speed Gust Speed Precip Events Conditions
12:55 AM 73.0 °F - 71.8 °F 96% 29.93 in 10.0 mi West 3.5 mph - N/A   Clear
1:55 AM 72.5 °F - 72.3 °F 99% 29.91 in 10.0 mi West 3.5 mph - N/A   Clear
2:55 AM 72.1 °F - 71.8 °F 99% 29.90 in 10.0 mi West 3.5 mph - N/A   Clear
3:55 AM 70.5 °F - 70.2 °F 99% 29.88 in 10.0 mi WSW 3.5 mph - N/A   Clear
4:55 AM 70.3 °F - 70.0 °F 99% 29.90 in 10.0 mi West 3.5 mph - N/A   Clear
5:30 AM 69.8 °F - 69.8 °F 100% 29.90 in 9.0 mi Calm Calm - N/A   Clear
5:39 AM 69.8 °F - 69.8 °F 100% 29.91 in 8.0 mi Calm Calm - N/A   Partly Cloudy
5:54 AM 69.8 °F - 69.8 °F 100% 29.91 in 6.0 mi Calm Calm - N/A   Scattered Clouds
5:55 AM 69.4 °F - 69.3 °F 99% 29.91 in 6.0 mi Calm Calm - N/A   Scattered Clouds
6:05 AM 69.8 °F - 69.8 °F 100% 29.91 in 6.0 mi Calm Calm - N/A   Mostly Cloudy
6:20 AM 69.8 °F - 69.8 °F 100% 29.92 in 4.0 mi Calm Calm - N/A   Mostly Cloudy
6:37 AM 69.8 °F - 69.8 °F 100% 29.93 in 4.0 mi Calm Calm - N/A   Overcast
6:38 AM 69.8 °F - 69.8 °F 100% 29.93 in 3.0 mi Calm Calm - N/A   Overcast
6:55 AM 69.4 °F - 69.1 °F 99% 29.93 in 5.0 mi Calm Calm - N/A   Overcast
7:18 AM 69.8 °F - 69.8 °F 100% 29.94 in 3.0 mi Variable 3.5 mph - N/A   Overcast
7:19 AM 69.8 °F - 69.8 °F 100% 29.94 in 2.5 mi Variable 3.5 mph - N/A   Overcast
7:20 AM 69.8 °F - 69.8 °F 100% 29.94 in 2.0 mi Calm Calm - N/A   Overcast
7:21 AM 69.8 °F - 69.8 °F 100% 29.94 in 1.8 mi Calm Calm - N/A   Overcast
7:23 AM 69.8 °F - 69.8 °F 100% 29.93 in 1.5 mi Calm Calm - N/A   Overcast
7:27 AM 69.8 °F - 69.8 °F 100% 29.93 in 1.8 mi Calm Calm - N/A   Overcast
7:30 AM 69.8 °F - 69.8 °F 100% 29.93 in 2.0 mi Calm Calm - N/A   Overcast
7:33 AM 69.8 °F - 69.8 °F 100% 29.93 in 1.5 mi Calm Calm - N/A   Overcast
7:34 AM 69.8 °F - 69.8 °F 100% 29.93 in 1.2 mi Calm Calm - N/A   Overcast
7:35 AM 69.8 °F - 69.8 °F 100% 29.93 in 1.0 mi Calm Calm - N/A   Mist
7:37 AM 69.8 °F - 69.8 °F 100% 29.93 in 0.8 mi Calm Calm - N/A   Mist
7:38 AM 69.8 °F - 69.8 °F 100% 29.93 in 0.5 mi Calm Calm - N/A Fog Fog
7:41 AM 69.8 °F - 69.8 °F 100% 29.93 in 0.5 mi Calm Calm - N/A Fog Fog
7:42 AM 69.8 °F - 69.8 °F 100% 29.93 in 0.5 mi Calm Calm - N/A Fog Fog
7:45 AM 69.8 °F - 69.8 °F 100% 29.93 in 0.2 mi Calm Calm - N/A Fog Fog
7:46 AM 69.8 °F - 69.8 °F 100% 29.93 in 0.2 mi Calm Calm - N/A Fog Fog
7:49 AM 69.8 °F - 69.8 °F 100% 29.93 in 0.2 mi Calm Calm - N/A Fog Fog
7:50 AM 69.8 °F - 69.8 °F 100% 29.93 in 0.5 mi Calm Calm - N/A Fog Fog
7:55 AM 69.8 °F - 69.6 °F 99% 29.93 in 0.5 mi Calm Calm - N/A Fog Fog
7:57 AM 69.8 °F - 69.8 °F 100% 29.93 in 0.8 mi Calm Calm - N/A   Mist
7:58 AM 69.8 °F - 69.8 °F 100% 29.93 in 0.8 mi Calm Calm - N/A   Mist
8:00 AM 69.8 °F - 69.8 °F 100% 29.93 in 1.0 mi Calm Calm - N/A   Mist
8:02 AM 69.8 °F - 69.8 °F 100% 29.94 in 1.2 mi Calm Calm - N/A   Overcast
8:04 AM 69.8 °F - 69.8 °F 100% 29.93 in 1.5 mi Calm Calm - N/A   Overcast
8:08 AM 69.8 °F - 69.8 °F 100% 29.93 in 1.2 mi Calm Calm - N/A   Overcast
8:10 AM 69.8 °F - 69.8 °F 100% 29.94 in 1.0 mi Calm Calm - N/A   Mist
8:12 AM 69.8 °F - 69.8 °F 100% 29.94 in 0.8 mi Calm Calm - N/A   Mist
8:15 AM 69.8 °F - 69.8 °F 100% 29.94 in 0.5 mi Calm Calm - N/A Fog Fog
8:16 AM 69.8 °F - 69.8 °F 100% 29.93 in 0.5 mi Calm Calm - N/A Fog Fog
8:17 AM 69.8 °F - 69.8 °F 100% 29.93 in 0.5 mi Calm Calm - N/A Fog Fog
8:27 AM 69.8 °F - 69.8 °F 100% 29.94 in 0.5 mi Calm Calm - N/A Fog Fog
8:28 AM 69.8 °F - 69.8 °F 100% 29.94 in 0.8 mi Calm Calm - N/A   Mist
8:30 AM 69.8 °F - 69.8 °F 100% 29.94 in 0.8 mi Calm Calm - N/A   Mist
8:35 AM 69.8 °F - 69.8 °F 100% 29.93 in 1.0 mi Calm Calm - N/A   Mist
8:37 AM 69.8 °F - 69.8 °F 100% 29.93 in 1.2 mi Calm Calm - N/A   Overcast
8:40 AM 71.6 °F - 69.8 °F 94% 29.94 in 1.5 mi Calm Calm - N/A   Overcast
8:41 AM 71.6 °F - 69.8 °F 94% 29.94 in 1.8 mi Calm Calm - N/A   Overcast
8:42 AM 71.6 °F - 69.8 °F 94% 29.94 in 2.0 mi Calm Calm - N/A   Overcast
8:43 AM 71.6 °F - 69.8 °F 94% 29.94 in 2.5 mi Calm Calm - N/A   Overcast
8:44 AM 71.6 °F - 69.8 °F 94% 29.94 in 3.0 mi Calm Calm - N/A   Overcast
8:55 AM 71.6 °F - 71.4 °F 99% 29.94 in 5.0 mi Calm Calm - N/A   Mostly Cloudy
9:06 AM 73.4 °F - 71.6 °F 94% 29.93 in 10.0 mi Calm Calm - N/A   Scattered Clouds
9:55 AM 76.1 °F - 71.4 °F 85% 29.94 in 10.0 mi Calm Calm - N/A   Scattered Clouds
10:11 AM 77.0 °F - 71.6 °F 83% 29.94 in 10.0 mi SSW 9.2 mph - N/A   Mostly Cloudy
10:13 AM 77.0 °F - 71.6 °F 83% 29.94 in 10.0 mi SSW 8.1 mph - N/A   Scattered Clouds
10:14 AM 77.0 °F - 71.6 °F 83% 29.94 in 10.0 mi South 8.1 mph - N/A   Mostly Cloudy
10:21 AM 77.0 °F - 69.8 °F 78% 29.95 in 10.0 mi SSW 10.4 mph - N/A   Scattered Clouds
10:22 AM 77.0 °F - 69.8 °F 78% 29.95 in 10.0 mi SSW 10.4 mph - N/A   Mostly Cloudy
10:48 AM 77.0 °F - 71.6 °F 83% 29.96 in 10.0 mi SSW 9.2 mph - N/A   Scattered Clouds
10:49 AM 77.0 °F - 71.6 °F 83% 29.96 in 10.0 mi SW 8.1 mph - N/A   Mostly Cloudy
10:55 AM 77.9 °F - 71.1 °F 79% 29.96 in 10.0 mi SSW 10.4 mph - N/A   Mostly Cloudy
11:00 AM 78.8 °F - 71.6 °F 78% 29.96 in 10.0 mi SSW 8.1 mph - N/A   Scattered Clouds
11:09 AM 78.8 °F - 71.6 °F 78% 29.96 in 10.0 mi South 8.1 mph - N/A   Mostly Cloudy
11:14 AM 78.8 °F - 69.8 °F 74% 29.96 in 10.0 mi SSW 12.7 mph - N/A   Mostly Cloudy
11:15 AM 78.8 °F - 69.8 °F 74% 29.96 in 10.0 mi SSW 11.5 mph - N/A   Mostly Cloudy
11:17 AM 78.8 °F - 69.8 °F 74% 29.96 in 10.0 mi SW 11.5 mph - N/A   Scattered Clouds
11:55 AM 79.3 °F - 70.2 °F 73% 29.96 in 10.0 mi SW 9.2 mph - N/A   Mostly Cloudy
12:03 PM 78.8 °F - 69.8 °F 74% 29.96 in 10.0 mi SSW 11.5 mph 17.3 mph N/A   Mostly Cloudy
12:08 PM 78.8 °F - 69.8 °F 74% 29.96 in 10.0 mi SSW 9.2 mph - N/A   Mostly Cloudy
12:13 PM 78.8 °F - 69.8 °F 74% 29.95 in 10.0 mi SSW 11.5 mph - N/A   Scattered Clouds
12:55 PM 80.1 °F 83.4 °F 70.5 °F 73% 29.94 in 10.0 mi SW 10.4 mph - N/A   Partly Cloudy
1:55 PM 80.1 °F 83.3 °F 70.2 °F 72% 29.93 in 10.0 mi South 10.4 mph - N/A   Partly Cloudy
2:55 PM 80.2 °F 83.7 °F 70.7 °F 73% 29.90 in 10.0 mi South 9.2 mph - N/A   Partly Cloudy
3:55 PM 80.2 °F 83.7 °F 70.7 °F 73% 29.88 in 10.0 mi South 9.2 mph - N/A   Partly Cloudy
4:55 PM 79.2 °F - 70.5 °F 75% 29.87 in 10.0 mi South 10.4 mph - N/A   Clear
5:55 PM 78.6 °F - 69.6 °F 74% 29.87 in 10.0 mi SSW 12.7 mph - N/A   Clear
6:55 PM 77.2 °F - 70.2 °F 79% 29.88 in 10.0 mi South 11.5 mph - N/A   Partly Cloudy
7:55 PM 76.1 °F - 70.3 °F 82% 29.88 in 10.0 mi South 10.4 mph - N/A   Clear
8:55 PM 76.1 °F - 70.5 °F 83% 29.88 in 10.0 mi SSW 13.8 mph - N/A   Clear
9:55 PM 75.7 °F - 71.1 °F 85% 29.88 in 10.0 mi SSW 11.5 mph - N/A   Clear
10:45 PM 75.2 °F - 71.6 °F 89% 29.88 in 10.0 mi SSW 9.2 mph - N/A   Mostly Cloudy
10:55 PM 75.6 °F - 71.1 °F 86% 29.88 in 10.0 mi SSW 9.2 mph - N/A   Mostly Cloudy
11:21 PM 75.2 °F - 71.6 °F 89% 29.88 in 10.0 mi SSW 11.5 mph - N/A   Scattered Clouds
11:55 PM 75.2 °F - 71.1 °F 87% 29.88 in 10.0 mi SSW 10.4 mph - N/A   Partly Cloudy